This is the latest recevied weather packets stored in our database for station/object EA1AHA-13. If no packets are shown the sender has not sent any weather packets the latest 10 day(s).
| Time | Temp. | Humidity | Pressure | Rain* | Wind** | Luminosity | Snow |
|---|---|---|---|---|---|---|---|
| 1778012189 | 13.33° C | 81% | 1014.1 hPa | 0 mm | - | - | - |
| 1778011564 | 13.33° C | 81% | 1014 hPa | 0 mm | - | - | - |
| 1778010988 | 13.33° C | 80% | 1013.8 hPa | 0 mm | - | - | - |
| 1778010365 | 13.89° C | 80% | 1013.8 hPa | 0 mm | - | - | - |
| 1778009789 | 13.33° C | 80% | 1013.8 hPa | 0 mm | - | - | - |
| 1778009164 | 13.89° C | 78% | 1013.7 hPa | 0 mm | - | - | - |
| 1778008589 | 13.89° C | 77% | 1013.8 hPa | 0 mm | - | - | - |
| 1778007966 | 14.44° C | 77% | 1013.7 hPa | 0 mm | - | - | - |
| 1778007389 | 14.44° C | 78% | 1013.8 hPa | 0 mm | - | - | - |
| 1778006765 | 14.44° C | 77% | 1013.6 hPa | 0 mm | - | - | - |
| 1778006189 | 14.44° C | 77% | 1013.8 hPa | 0 mm | - | - | - |
| 1778005565 | 15° C | 75% | 1013.7 hPa | 0 mm | - | - | - |
| 1778004989 | 15° C | 74% | 1013.5 hPa | 0 mm | - | - | - |
| 1778004412 | 15° C | 75% | 1013.5 hPa | 0 mm | - | - | - |
| 1778003790 | 14.44° C | 77% | 1013.6 hPa | 0 mm | - | - | - |
| 1778003165 | 14.44° C | 78% | 1013.6 hPa | 0 mm | - | - | - |
| 1778002589 | 14.44° C | 77% | 1013.7 hPa | 0 mm | - | - | - |
| 1778001965 | 14.44° C | 79% | 1013.6 hPa | 0 mm | - | - | - |
| 1778001389 | 14.44° C | 77% | 1013.5 hPa | 0 mm | - | - | - |
| 1778000765 | 15° C | 73% | 1013.4 hPa | 0 mm | - | - | - |
| 1778000189 | 15° C | 72% | 1013.4 hPa | 0 mm | - | - | - |
| 1777999565 | 15.56° C | 74% | 1013.5 hPa | 0 mm | - | - | - |
| 1777998989 | 15.56° C | 73% | 1013.4 hPa | 0 mm | - | - | - |
| 1777998366 | 15° C | 73% | 1013.5 hPa | 0 mm | - | - | - |
| 1777997790 | 15° C | 75% | 1013.6 hPa | 0 mm | - | - | - |
* Rain latest hour (hover to see other rain measurements)
** Current wind speed in m/s (hover to see current wind gust speed)